TimePDT,TemperatureF,Dew PointF,Humidity,Sea Level PressureIn,VisibilityMPH,Wind Direction,Wind SpeedMPH,Gust SpeedMPH,PrecipitationIn,Events,Conditions,WindDirDegrees,DateUTC
12:55 AM,51.1,45.0,80,30.08,10.0,Calm,Calm,-,N/A,,Clear,0,2012-10-30 07:55:00
1:55 AM,51.1,43.0,74,30.08,10.0,ENE,3.5,-,N/A,,Clear,60,2012-10-30 08:55:00
2:29 AM,50.0,42.8,76,30.06,10.0,East,5.8,-,N/A,,Scattered Clouds,80,2012-10-30 09:29:00
2:38 AM,51.8,44.6,76,30.06,10.0,ENE,4.6,-,N/A,,Mostly Cloudy,70,2012-10-30 09:38:00
2:55 AM,52.0,45.0,77,30.08,10.0,NE,5.8,-,N/A,,Overcast,40,2012-10-30 09:55:00
3:22 AM,53.6,51.8,94,30.04,1.8,NE,4.6,-,N/A,,Overcast,50,2012-10-30 10:22:00
3:25 AM,51.8,51.8,100,30.04,0.8,NE,5.8,-,N/A,,Mist,50,2012-10-30 10:25:00
3:55 AM,52.0,52.0,100,30.06,0.2,Calm,Calm,-,N/A,Fog,Fog,0,2012-10-30 10:55:00
4:55 AM,50.0,50.0,100,30.06,0.2,Calm,Calm,-,N/A,Fog,Fog,0,2012-10-30 11:55:00
5:44 AM,46.4,46.4,100,30.04,1.8,Calm,Calm,-,N/A,,Partly Cloudy,0,2012-10-30 12:44:00
5:51 AM,48.2,46.4,93,30.04,8.0,Calm,Calm,-,N/A,,Clear,0,2012-10-30 12:51:00
5:55 AM,48.9,46.0,90,30.07,8.0,Calm,Calm,-,N/A,,Clear,0,2012-10-30 12:55:00
6:16 AM,46.4,46.4,100,30.04,1.8,Calm,Calm,-,N/A,,Clear,0,2012-10-30 13:16:00
6:23 AM,46.4,44.6,93,30.04,1.2,Calm,Calm,-,N/A,,Clear,0,2012-10-30 13:23:00
6:27 AM,46.4,46.4,100,30.05,3.0,Calm,Calm,-,N/A,,Clear,0,2012-10-30 13:27:00
6:55 AM,46.0,45.0,96,30.08,10.0,Calm,Calm,-,N/A,,Clear,0,2012-10-30 13:55:00
7:55 AM,48.0,41.0,77,30.09,10.0,Calm,Calm,-,N/A,,Clear,0,2012-10-30 14:55:00
8:55 AM,54.0,41.0,62,30.11,10.0,Calm,Calm,-,N/A,,Clear,0,2012-10-30 15:55:00
9:55 AM,57.9,44.1,60,30.10,10.0,Calm,Calm,-,N/A,,Clear,0,2012-10-30 16:55:00
10:55 AM,62.1,54.0,75,30.10,6.0,SW,3.5,-,N/A,,Haze,230,2012-10-30 17:55:00
11:55 AM,64.9,54.0,68,30.08,6.0,SW,5.8,-,N/A,,Haze,220,2012-10-30 18:55:00
12:55 PM,68.0,51.1,55,30.05,9.0,SW,6.9,-,N/A,,Clear,230,2012-10-30 19:55:00
1:55 PM,69.1,50.0,51,30.03,10.0,SW,5.8,-,N/A,,Clear,230,2012-10-30 20:55:00
2:55 PM,69.1,53.1,57,30.02,10.0,WSW,5.8,-,N/A,,Clear,240,2012-10-30 21:55:00
3:55 PM,68.0,52.0,56,30.01,10.0,West,4.6,-,N/A,,Clear,270,2012-10-30 22:55:00
4:55 PM,66.9,53.1,61,30.00,10.0,WSW,4.6,-,N/A,,Clear,240,2012-10-30 23:55:00
5:55 PM,64.0,53.1,67,30.00,10.0,West,4.6,-,N/A,,Clear,260,2012-10-31 00:55:00
6:55 PM,59.0,54.0,83,30.01,9.0,WNW,5.8,-,N/A,,Clear,290,2012-10-31 01:55:00
7:55 PM,57.9,54.0,87,30.02,9.0,Calm,Calm,-,N/A,,Clear,0,2012-10-31 02:55:00
8:55 PM,57.9,55.0,90,30.02,8.0,Calm,Calm,-,N/A,,Clear,0,2012-10-31 03:55:00
9:55 PM,55.9,52.0,87,30.04,9.0,Calm,Calm,-,N/A,,Clear,0,2012-10-31 04:55:00
10:55 PM,54.0,51.1,90,30.04,8.0,East,3.5,-,N/A,,Clear,80,2012-10-31 05:55:00
11:16 PM,51.8,50.0,94,30.01,8.0,Calm,Calm,-,N/A,,Partly Cloudy,0,2012-10-31 06:16:00
11:55 PM,53.1,48.9,86,30.04,9.0,ENE,3.5,-,N/A,,Scattered Clouds,60,2012-10-31 06:55:00